Location: Job
(45.2149°N, 2.1259°E)
Time: 20:36:31
(UTC+00:00)

Daily predictions for brighter satellites

Satellite Brightness Start Highest point End
(mag) Time Altitude Azimuth Time Altitude Azimuth Time Altitude Azimuth
NOAA 6 4.3 16:41:19 10° SE 16:46:15 48° ENE 16:51:11 10° N
Lacrosse 5 rocket 3.2 16:45:17 10° NW 16:47:49 17° NNW 16:50:26 10° NNE
Cosmos 1842 Rocket 4.3 16:45:00 10° SSE 16:48:58 33° E 16:52:59 10° NNE
Cosmos 1656 4.3 16:45:17 10° N 16:50:13 32° NE 16:55:10 10° ESE
Cosmos 44 4.0 16:46:44 10° NNW 16:51:01 30° NE 16:55:04 10° ESE
ISS -2.6 16:51:00 10° W 16:54:07 32° NNW 16:57:14 10° NE
CZ-2C R/B 3.0 16:50:28 10° SSE 16:55:31 87° WSW 17:00:25 10° NNW
USA 306 3.2 16:55:46 10° WSW 16:59:58 61° NNW 17:04:03 11° NE
Cosmos 1766 Rocket 3.7 16:57:11 10° N 17:01:32 80° W 17:05:53 10° S
NOSS 2-1 (E) 3.2 17:02:29 10° SW 17:05:43 61° NW 17:09:01 10° NNE
deb Kosmos-1763 3.9 17:04:36 10° S 17:07:56 57° ESE 17:11:19 10° NNE
Meteor 2-2 Rocket 4.4 17:03:55 10° S 17:09:56 79° E 17:15:58 10° NNE
CZ-2D R/B 3.7 17:08:28 10° SE 17:12:04 39° ENE 17:15:40 10° N
CZ-4C R/B 4.0 17:07:05 10° NNW 17:12:12 22° NNE 17:16:42 14° ENE
USA 267 3.8 17:06:19 10° NE 17:12:34 50° NNW 17:18:49 10° W
Cosmos 2221 2.4 17:09:15 10° S 17:13:29 69° E 17:17:45 10° NNE
COSMO-SKYMED 1 3.7 17:11:05 10° NE 17:14:40 24° E 17:18:13 10° SSE
USA 307 3.4 17:11:48 10° WSW 17:16:01 53° NNW 17:19:27 15° NE
CORIOLIS 4.1 17:12:24 10° SSE 17:17:47 80° ENE 17:23:13 10° NNW
Cosmos 1939 Rocket 3.1 17:14:23 10° S 17:18:32 79° W 17:22:39 10° NNW
Okean O Rocket 2.5 17:15:15 10° ESE 17:18:59 27° ENE 17:22:45 10° N
Lacrosse 5 2.8 17:14:41 10° WNW 17:19:39 52° SW 17:24:34 10° SSE
COSMOS 2455 4.4 17:17:04 10° SE 17:20:07 14° ESE 17:21:08 14° E
PSLV R/B 3.6 17:17:01 10° SSE 17:20:38 58° ENE 17:24:16 10° N
Cosmos 990 Rocket 4.4 17:16:42 10° N 17:21:38 40° ENE 17:26:29 10° SE
Meteor 2-19 Rocket 4.4 17:16:02 10° N 17:22:09 80° E 17:28:14 10° SSE
USA 229 DEB 4.2 17:15:41 10° NNW 17:22:35 44° NE 17:29:54 10° ESE
USA 229 4.2 17:15:47 10° NNW 17:22:40 44° NE 17:29:58 10° ESE
deb Chang Zheng 4 4.1 17:19:16 10° SE 17:23:09 35° ENE 17:27:05 10° N
ATLAS CENTAUR R/B 2.8 17:19:24 10° WSW 17:23:12 35° NW 17:27:17 10° NNE
Cosmos 1833 Rocket 3.5 17:19:33 10° SSE 17:24:18 29° ESE 17:27:36 17° NE
MOS 1-B Rocket 4.2 17:19:45 10° NNE 17:25:17 47° E 17:31:23 10° S
CZ-4B R/B 3.4 17:21:32 10° SE 17:26:45 46° ENE 17:31:53 10° N
ATLAS 2AS CENTAUR R/B 4.4 17:22:31 10° W 17:29:03 28° NNW 17:35:23 10° NNE
Cosmos 1464 Rocket 4.2 17:24:12 10° SSW 17:30:33 78° W 17:36:59 10° N
YAOGAN 1 4.3 17:33:05 15° NE 17:33:05 15° NE 17:34:24 10° NNE
Cosmos 1606 3.5 17:30:51 10° SSW 17:34:31 52° WNW 17:38:13 10° N
ARGOS 3.4 17:31:09 10° SE 17:36:15 44° ENE 17:41:21 10° N
USA 308 3.7 17:34:14 10° W 17:38:17 41° NNW 17:40:45 21° NE
Cosmos 1408 Rocket 4.0 17:37:01 10° NNW 17:41:19 64° W 17:45:37 10° S
Cosmos 1743 Rocket 3.4 17:40:38 10° N 17:44:59 74° E 17:49:17 10° SSE
USA 276 2.6 17:42:39 10° WNW 17:45:37 40° NNE 17:46:02 38° NE
NOSS 3-1 (A) 4.1 17:38:50 10° NW 17:46:10 61° NE 17:54:45 10° SE
USA 234 4.5 17:40:14 10° SSE 17:46:21 42° SW 17:52:30 10° WNW
MOS 1-B 4.3 17:41:03 10° SSE 17:46:49 88° ENE 17:52:38 10° NNW
Nadezhda 4 Rocket 4.2 17:42:38 10° NNW 17:48:56 75° W 17:55:15 10° S
Cosmos 2084 4.0 17:45:55 10° NNW 17:49:56 37° NE 17:50:50 33° ENE
NOSS 3-1 (C) 4.1 17:42:25 10° NW 17:49:58 89° NE 17:58:48 10° SE
H-2A R/B 2.0 17:44:55 10° SSE 17:50:12 90° WNW 17:55:22 10° NNW
ATLAS 5 CENTAUR R/B 3.5 17:44:03 10° NW 17:51:21 26° N 17:52:37 23° NE
Meteor 1-25 Rocket 4.1 17:46:39 10° N 17:52:14 73° E 17:57:47 10° SSE
CZ-4 R/B 3.8 18:00:29 11° N 18:00:29 11° N 18:00:41 10° N
Cosmos 1898 Rocket 3.5 17:51:59 10° NNW 17:57:13 60° ENE 18:02:22 10° SE
Meteor 2-14 Rocket 4.4 17:51:36 10° N 17:57:39 59° ENE 18:03:38 10° SSE
CZ-2C R/B 2.5 17:52:33 10° NNE 17:57:47 67° ESE 18:02:55 10° S
Cosmos 1092 Rocket 3.9 17:51:50 10° N 17:58:14 79° E 18:04:34 10° SSE
SKYMED 2 3.4 17:59:31 16° NNE 18:02:56 78° ESE 18:07:16 10° S
Cosmos 468 Rocket 3.8 17:59:38 10° SSW 18:04:45 77° ESE 18:07:57 24° NNE
Cosmos 1809 Rocket 4.3 17:59:32 10° N 18:05:40 79° E 18:11:45 10° SSE
Cosmos 1782 2.8 18:04:00 10° S 18:07:56 57° E 18:08:05 57° E
USA 305 4.1 18:04:38 10° WNW 18:08:24 30° NNW 18:09:27 27° NNE
ERBS 3.6 18:07:19 10° W 18:10:11 29° NNW 18:10:32 29° NNW
Meteor 2-21 Rocket 4.4 18:06:30 10° N 18:12:32 57° ENE 18:18:29 10° SSE
Cosmos 1428 Rocket 4.4 18:06:32 10° N 18:12:41 87° E 18:18:49 10° S
Cosmos 2369 3.9 18:07:13 10° NNW 18:12:45 47° ENE 18:13:56 41° E
SJ 16-02 4.1 18:10:37 10° NW 18:13:50 20° W 18:17:02 10° SW
Cosmos 2322 Rocket 4.4 18:11:56 10° NNE 18:12:08 10° NNE 18:12:08 10° NNE
Cosmos 1627 Rocket 4.4 18:08:58 10° N 18:15:13 89° E 18:21:21 10° S
Cosmos 540 Rocket 3.4 18:12:57 10° S 18:17:57 60° ESE 18:18:55 50° ENE
Cosmos 1340 Rocket 4.4 18:15:52 10° NNW 18:19:37 37° W 18:23:23 10° SSW
Cosmos 1697 Rocket 2.5 18:18:18 10° NNW 18:23:57 81° ENE 18:27:53 20° SSE
GEOS 3 Rocket 3.7 18:20:33 15° SSE 18:24:56 76° SW 18:30:11 10° NW
Cosmos 1980 Rocket 2.5 18:19:58 10° NNW 18:25:04 45° NE 18:25:04 45° NE
NOAA 15 4.5 18:20:50 10° SSE 18:26:03 65° ENE 18:31:18 10° N
Cosmos 1805 Rocket 3.9 18:22:09 10° NNW 18:26:27 63° W 18:30:43 10° S
Cosmos 1933 4.0 18:23:02 10° SSW 18:27:01 54° WNW 18:29:20 23° N
SL-16 R/B 4.2 18:24:13 10° N 18:25:26 14° NNE 18:25:26 14° NNE
Lacrosse 5 rocket 3.5 18:25:40 10° NNW 18:27:04 15° N 18:27:04 15° N
Cosmos 2279 Rocket 3.9 18:24:47 10° S 18:30:56 67° E 18:35:12 21° NNE
ISS -1.6 18:28:34 10° NW 18:30:12 21° NNW 18:30:12 21° NNW
Cosmos 44 4.3 18:27:53 10° NW 18:32:23 43° WSW 18:36:33 10° S
Cosmos 2082 Rocket 2.6 18:27:17 10° S 18:31:51 44° SE 18:31:51 44° SE
Feng Yun 1-1 Rocket 4.3 18:26:59 10° SSE 18:32:55 86° ENE 18:38:52 10° NNW
DMSP B5D2-2 4.3 18:34:14 49° SE 18:34:14 49° SE 18:38:22 10° S
COSMOS 2406 3.1 18:29:21 10° SSW 18:35:06 82° ESE 18:36:32 53° NE
Cosmos 1634 Rocket 4.2 18:33:32 10° SSW 18:39:49 70° W 18:46:10 10° N
Sich 1 3.5 18:35:55 10° NNW 18:40:08 57° W 18:44:20 10° S
USA 306 4.5 18:36:51 10° WNW 18:40:03 26° NNW 18:40:03 26° NNW
SL-08 RB Rocket 3.9 18:36:42 10° S 18:41:19 69° WSW 18:45:59 10° NNW
Cosmos 1937 Rocket 3.6 18:41:17 10° NNW 18:46:37 74° WSW 18:49:00 33° S
Cosmos 1763 Rocket 4.4 18:43:22 10° SW 18:48:11 44° WNW 18:50:33 27° N
Cosmos 841 Rocket 3.5 18:43:33 10° SSW 18:48:11 72° S 18:48:11 72° S
COSMO-SKYMED 1 4.1 18:48:08 17° NNW 18:50:52 34° WNW 18:54:46 10° SW
USA 267 4.3 18:53:24 30° NNE 18:54:45 32° N 19:00:23 10° WNW
NOSS 2-2 (C) 4.4 18:49:56 10° NNW 18:54:22 62° N 18:54:22 62° N
Okean O Rocket 3.3 18:51:14 10° SSW 18:55:13 32° W 18:59:15 10° NNW
ATLAS CENTAUR R/B 2.9 18:49:28 10° WSW 18:57:46 56° NW 18:57:57 55° NNW
Meteor 2-16 Rocket 4.5 18:53:56 10° NNW 19:00:03 76° W 19:06:08 10° S
CZ-4C R/B 3.0 18:55:12 10° NNW 19:01:56 57° NE 19:01:56 57° NE
Meteor 1-14 Rocket 4.4 18:56:43 10° NNW 19:02:29 73° W 19:08:20 10° S
COSMOS 2455 2.9 18:59:07 10° SSW 19:04:20 69° SSW 19:04:20 69° SSW
Cosmos 2180 Rocket 4.4 18:59:34 10° S 19:05:57 88° W 19:06:23 79° N
Cosmos 1833 Rocket 3.5 19:02:36 10° SW 19:07:59 46° WNW 19:09:20 39° NNW
USA 229 DEB 4.5 19:06:38 10° NW 19:13:49 56° WSW 19:18:35 24° S
USA 229 4.4 19:06:43 10° NW 19:13:55 56° WSW 19:18:32 25° S
Cosmos 1980 Rocket 4.3 20:04:23 10° NW 20:06:53 22° WNW 20:06:53 22° WNW
